Torna al catalogo

STARLINK-30285

AttivoComunicazioniVLEO
NORAD 57840·PAYLOAD·🇺🇸 United States

Lanciato Sep 12, 2023 da Vandenberg Space Force Base

Loading…

Prossimi Passaggi (prossime 24 ore)

TLE

AggiornatoSource: CelesTrak SupGP

Epoca: Sep 15, 2026, 01:37 UTC

1 57840C 23141A   26258.06784722  .00039755  00000+0  12787-2 0  2587
2 57840  53.1580 123.0527 0001124  81.9817 245.5252 15.31676668    15

Traccia STARLINK-30285 in tempo reale con AllMySat

Download on the App Store